Wind_Speed
14 13 13 12 12 11 11 10 9 8 7 8 9 9 10 10 10 10 10 10 10 10 10 10 10 10 10 9 9 10 10 10 10 10 10 11 11 10 10 10 10 9
14 14 14 13 12 11 10 10 10 9 8 8 8 8 9 9 9 10 10 10 10 10 10 10 9 9 9 9 9 10 10 10 11 11 11 11 11 11 11 11 11 11
14 14 14 13 12 11 11 11 10 10 9 8 8 7 7 8 9 9 9 9 9 9 9 9 9 9 9 9 9 9 10 10 11 12 12 12 12 12 11 10 11 11
13 14 14 13 13 12 12 12 11 10 10 8 8 7 7 8 8 9 9 8 8 8 8 8 8 9 9 9 9 9 9 10 10 11 12 12 12 12 11 10 11 11
13 14 14 14 14 13 13 12 11 11 10 9 9 8 8 8 8 9 8 8 8 7 7 7 7 8 8 9 9 9 10 10 10 10 11 12 12 12 12 11 11 11
14 14 14 14 15 14 14 13 12 12 12 11 11 10 10 9 9 9 9 9 9 7 6 6 6 6 7 8 8 9 10 10 10 10 11 11 12 12 12 12 11 11
15 15 15 15 15 15 15 15 14 13 13 13 12 11 11 10 9 9 9 9 9 8 7 6 6 5 5 6 7 8 9 10 10 10 11 11 12 12 12 12 12 12
16 16 16 16 16 16 16 16 15 14 14 14 13 12 12 11 11 11 10 10 10 9 9 8 7 6 6 5 6 6 7 8 9 9 10 11 11 11 12 12 12 13
18 18 17 17 17 17 17 17 17 16 16 15 14 13 13 12 12 12 12 11 11 11 11 10 9 8 7 6 6 6 6 7 8 8 9 10 10 10 11 12 12 12
20 19 19 19 19 18 17 17 18 18 18 17 16 15 14 14 14 14 13 13 12 12 12 11 10 9 8 8 8 7 7 8 8 9 9 9 9 9 10 10 11 11
21 21 21 21 20 20 19 19 19 20 20 19 18 17 16 15 15 15 14 14 13 13 13 12 11 11 10 10 10 9 9 9 10 10 10 10 10 10 10 10 10 10
22 22 22 22 22 21 21 20 21 22 22 22 21 20 18 18 17 16 16 15 14 14 14 14 13 13 12 12 11 11 11 10 10 10 10 11 11 11 11 11 11 11
23 23 23 22 22 22 22 21 22 22 23 24 23 22 21 20 19 18 17 16 16 15 15 15 15 15 14 13 13 13 12 12 11 11 11 11 12 12 12 13 12 12
24 24 23 23 23 23 22 22 22 22 23 24 24 25 24 23 22 20 20 19 18 17 16 16 16 16 15 15 14 14 13 13 12 12 12 12 12 13 14 14 14 14
25 25 25 25 25 23 22 22 22 22 22 23 25 26 25 24 23 22 22 21 20 19 18 18 18 17 16 15 15 14 14 14 14 14 14 14 14 14 15 15 16 15
25 25 25 26 27 26 23 23 22 22 22 23 24 25 25 25 25 24 23 22 21 21 21 21 20 19 17 16 16 16 16 16 16 16 15 15 15 15 15 16 16 17
24 23 23 25 28 28 26 25 24 24 23 23 23 24 25 26 27 26 25 24 23 23 23 23 22 21 19 18 18 18 18 19 19 18 18 17 17 16 16 16 16 17
23 24 24 26 28 29 28 27 26 25 24 24 24 24 25 26 27 28 27 26 26 25 24 24 23 22 21 21 21 21 21 21 21 21 20 19 18 18 18 18 18 18
25 25 26 27 28 28 28 28 28 27 26 26 25 25 25 26 27 28 27 26 25 24 24 24 24 24 24 23 23 23 23 24 24 23 23 22 21 20 20 20 20 19
26 27 28 29 29 30 29 29 30 29 27 27 27 26 26 26 27 27 26 25 24 23 23 23 24 24 25 25 25 25 25 26 26 26 25 24 23 23 22 21 21 21
25 28 28 29 29 30 29 30 31 31 30 29 29 28 28 27 28 28 28 26 25 24 23 23 24 24 24 24 25 25 26 27 27 27 27 26 25 24 24 23 22 22
22 25 27 27 28 28 29 29 30 30 30 29 30 30 30 31 31 31 29 27 26 25 25 25 25 24 24 23 23 23 24 25 27 27 27 27 27 26 25 25 25 25
21 23 25 27 28 28 27 27 27 27 27 28 29 30 32 33 34 33 31 29 28 28 28 28 27 26 25 24 24 24 24 25 25 26 27 27 27 26 26 26 26 26
20 22 24 26 27 25 23 24 25 25 26 27 28 28 29 31 33 33 31 30 30 30 30 29 28 28 28 27 26 26 26 26 26 26 27 27 26 25 25 25 26 26
13 15 18 21 22 21 21 23 24 25 26 27 28 28 28 29 31 32 32 30 29 30 31 30 30 30 30 30 29 29 29 28 28 28 28 27 26 25 25 25 25 26
10 11 13 15 16 16 18 20 22 24 26 27 28 28 29 30 31 33 33 31 30 30 31 31 31 32 32 32 32 32 31 30 30 31 30 29 29 29 29 29 28 27
Wind_Direction
193 193 191 191 192 191 186 184 187 190 191 187 184 186 185 182 181 183 187 189 192 196 198 200 200 202 206 209 211 214 214 213 212 213 215 216 215 215 215 214 214 215
189 192 192 191 195 196 192 191 190 188 193 192 187 191 191 185 183 185 187 188 190 195 198 200 204 210 216 216 216 219 220 219 217 218 221 222 221 219 221 222 220 220
189 191 192 191 195 198 197 198 196 191 193 195 190 191 196 195 192 188 187 189 190 195 201 205 207 211 218 220 219 221 222 223 223 223 225 227 227 227 229 229 226 224
191 192 194 194 195 198 200 199 199 196 195 198 196 195 197 199 198 195 193 196 197 200 207 215 215 211 214 220 222 224 224 226 229 228 229 230 233 235 236 235 232 228
194 195 196 199 199 200 200 198 200 200 199 200 202 202 202 198 197 197 198 200 203 205 209 219 224 219 220 224 227 228 229 232 234 232 232 234 236 240 241 241 238 235
200 199 199 203 204 204 202 199 200 201 201 204 204 204 205 201 199 199 200 200 198 198 201 211 219 221 225 229 231 233 233 234 235 234 235 236 237 241 244 246 246 244
208 206 205 207 209 208 206 204 203 200 201 204 205 205 206 205 205 204 203 203 199 197 199 205 214 218 222 227 229 232 234 234 235 235 235 237 239 242 246 248 248 247
215 215 215 214 215 214 212 210 209 205 205 205 204 206 207 205 208 208 206 206 204 204 205 208 214 220 222 224 226 229 232 234 236 235 235 237 240 243 246 248 247 246
220 221 222 222 221 220 218 216 214 212 211 209 208 209 209 206 208 210 211 211 210 209 210 209 211 214 218 222 226 230 233 237 238 238 238 238 240 243 245 248 249 248
224 224 226 227 226 225 223 221 219 218 216 213 212 213 212 211 210 211 214 215 215 215 213 211 211 213 213 216 220 226 234 243 245 244 244 241 240 242 245 246 247 248
224 226 227 228 230 229 227 225 222 220 218 217 216 215 215 215 214 214 215 214 216 218 219 217 217 217 216 213 216 222 230 241 249 252 252 249 245 244 245 246 245 245
220 224 226 227 229 230 230 229 227 224 221 218 217 217 217 217 216 216 216 216 216 219 222 222 222 222 221 218 218 221 227 235 245 253 256 257 255 251 249 249 247 246
224 224 225 224 226 228 229 231 232 232 229 224 220 218 218 219 218 216 217 219 220 222 223 225 226 226 225 225 225 225 229 233 239 247 254 257 258 258 256 254 252 250
233 228 227 226 226 225 226 228 231 234 236 234 230 225 221 220 220 219 218 219 222 225 227 229 231 231 230 231 232 232 235 237 240 245 249 252 254 255 256 257 255 254
242 236 232 230 229 226 224 226 228 231 235 239 239 235 231 227 224 223 222 221 222 225 228 231 233 235 235 237 238 240 241 242 244 247 249 250 250 250 252 255 256 256
242 239 233 229 230 229 226 225 227 229 231 235 239 240 239 236 233 230 228 226 226 227 229 232 233 233 235 237 241 243 245 245 245 247 250 251 251 249 249 250 254 256
233 233 232 231 231 230 228 226 227 229 229 231 233 236 239 240 239 237 235 233 233 233 233 235 236 235 234 234 237 240 243 246 246 246 248 249 250 250 249 249 250 251
227 229 232 232 229 226 225 227 228 228 229 230 230 232 235 237 238 238 237 236 236 237 238 239 240 240 239 239 238 239 241 243 245 246 247 248 248 248 247 247 248 248
229 232 233 232 228 225 226 228 228 228 229 230 230 230 232 234 236 236 236 235 236 238 240 241 242 242 241 242 242 243 244 246 246 247 248 249 250 249 247 245 246 247
233 235 234 232 229 228 228 228 229 230 231 234 236 235 232 232 234 234 233 233 234 237 239 240 241 241 240 240 242 244 246 249 251 251 250 250 249 249 249 247 246 247
234 237 237 235 233 233 232 232 232 232 234 237 241 240 235 233 235 235 234 233 233 235 237 238 238 239 238 238 240 242 244 248 252 255 256 256 254 252 251 251 251 251
228 233 239 241 239 238 237 236 235 235 235 237 241 242 239 237 237 237 237 238 238 238 239 240 239 239 239 239 239 240 242 245 249 253 257 259 260 260 259 258 257 256
227 230 236 240 241 240 240 241 242 240 238 238 240 243 243 241 240 240 241 244 246 246 245 244 243 242 243 242 240 239 240 242 246 249 252 255 258 260 262 262 262 262
233 233 235 240 244 245 246 248 247 244 240 239 240 242 244 245 245 245 245 245 247 250 250 249 247 245 245 245 244 243 242 243 246 248 250 252 253 254 256 258 259 260
243 244 245 248 251 251 249 248 247 244 241 240 240 241 244 246 247 249 249 247 248 250 252 251 250 248 247 247 247 248 247 247 248 249 249 250 251 252 254 255 256 255
264 263 262 261 261 257 251 248 247 247 245 244 244 244 245 246 248 250 250 249 249 252 253 252 252 251 250 249 249 249 250 251 251 251 251 250 251 253 256 258 259 258
Height
3237 3238 3239 3240 3241 3242 3243 3244 3245 3246 3246 3247 3247 3248 3249 3249 3250 3251 3252 3253 3254 3255 3256 3257 3258 3259 3260 3260 3261 3262 3263 3263 3264 3265 3266 3267 3267 3268 3268 3269 3269 3270
3236 3237 3239 3239 3240 3242 3243 3243 3244 3245 3246 3247 3247 3248 3249 3249 3250 3251 3252 3253 3254 3255 3256 3257 3258 3259 3259 3260 3261 3261 3262 3263 3264 3265 3266 3267 3267 3268 3268 3268 3269 3269
3235 3237 3238 3239 3240 3241 3242 3243 3244 3245 3246 3246 3247 3248 3249 3249 3250 3251 3252 3253 3254 3255 3256 3257 3257 3258 3259 3260 3260 3261 3262 3263 3264 3264 3265 3266 3267 3267 3268 3268 3269 3269
3235 3236 3238 3239 3240 3241 3242 3243 3244 3244 3245 3246 3247 3248 3248 3249 3250 3251 3252 3253 3254 3255 3256 3257 3257 3258 3259 3260 3260 3261 3261 3262 3263 3264 3265 3266 3266 3267 3267 3268 3268 3269
3234 3235 3237 3238 3239 3240 3241 3242 3243 3244 3245 3246 3247 3248 3248 3249 3250 3251 3251 3253 3254 3254 3255 3257 3257 3258 3259 3259 3260 3261 3261 3262 3262 3263 3264 3265 3265 3266 3266 3267 3268 3268
3233 3235 3236 3237 3238 3239 3240 3242 3242 3243 3244 3245 3246 3247 3248 3249 3249 3250 3251 3252 3253 3254 3255 3256 3257 3258 3258 3259 3260 3260 3261 3261 3262 3262 3263 3264 3264 3265 3265 3266 3267 3267
3233 3234 3235 3236 3237 3238 3240 3241 3241 3242 3244 3245 3246 3247 3247 3248 3249 3250 3251 3251 3252 3253 3254 3255 3256 3257 3258 3259 3259 3260 3260 3261 3261 3262 3262 3263 3263 3264 3264 3265 3265 3266
3233 3234 3235 3236 3236 3237 3238 3240 3241 3241 3242 3243 3245 3246 3247 3247 3248 3249 3250 3250 3251 3252 3253 3254 3255 3256 3257 3258 3258 3259 3259 3260 3260 3261 3261 3262 3262 3263 3263 3264 3264 3265
3232 3233 3234 3235 3236 3237 3238 3239 3240 3240 3241 3242 3243 3244 3245 3246 3247 3248 3249 3250 3250 3251 3252 3253 3253 3254 3255 3256 3257 3258 3259 3259 3260 3260 3260 3261 3261 3261 3262 3262 3263 3263
3230 3232 3233 3234 3235 3236 3237 3238 3239 3239 3240 3241 3242 3243 3244 3245 3246 3247 3248 3249 3250 3251 3251 3252 3252 3252 3253 3254 3255 3256 3257 3258 3259 3259 3260 3260 3260 3260 3260 3261 3261 3262
3227 3229 3231 3232 3234 3235 3236 3237 3237 3238 3239 3239 3240 3241 3242 3243 3244 3245 3246 3247 3248 3249 3250 3250 3251 3251 3252 3252 3253 3254 3255 3256 3257 3258 3259 3259 3259 3260 3260 3260 3260 3260
3223 3225 3227 3229 3232 3234 3235 3236 3236 3237 3237 3238 3238 3240 3241 3242 3243 3244 3245 3246 3247 3248 3248 3249 3249 3250 3250 3251 3252 3252 3253 3255 3256 3257 3257 3258 3258 3259 3259 3259 3259 3259
3222 3222 3224 3226 3229 3231 3233 3234 3235 3236 3237 3237 3237 3237 3238 3239 3241 3242 3243 3244 3245 3246 3247 3247 3248 3248 3249 3250 3250 3251 3252 3253 3254 3255 3256 3256 3257 3257 3257 3257 3258 3258
3221 3221 3222 3224 3226 3228 3230 3232 3233 3234 3236 3237 3237 3237 3237 3237 3238 3240 3241 3242 3243 3244 3245 3246 3246 3247 3248 3248 3249 3250 3250 3251 3252 3253 3254 3254 3255 3255 3255 3256 3256 3256
3219 3220 3220 3222 3224 3226 3227 3229 3231 3232 3233 3235 3236 3237 3237 3236 3237 3238 3239 3240 3241 3242 3243 3243 3244 3245 3246 3247 3248 3248 3249 3249 3250 3251 3251 3252 3252 3253 3253 3254 3254 3254
3217 3218 3218 3220 3222 3224 3225 3226 3228 3229 3230 3232 3234 3235 3236 3236 3236 3236 3236 3238 3239 3240 3240 3241 3242 3243 3244 3245 3246 3247 3247 3247 3248 3248 3249 3249 3250 3250 3251 3251 3252 3252
3214 3215 3216 3218 3220 3221 3222 3223 3224 3225 3226 3228 3230 3232 3233 3234 3234 3234 3235 3235 3236 3237 3237 3238 3239 3241 3242 3242 3243 3244 3244 3245 3245 3246 3246 3246 3247 3247 3248 3249 3249 3250
3211 3212 3214 3215 3217 3218 3219 3220 3221 3221 3222 3224 3226 3228 3230 3231 3232 3232 3232 3233 3233 3234 3235 3236 3237 3238 3239 3240 3240 3241 3241 3242 3242 3243 3243 3244 3244 3244 3245 3246 3246 3247
3209 3210 3211 3212 3214 3215 3216 3217 3218 3218 3219 3220 3221 3223 3225 3227 3229 3230 3230 3230 3231 3232 3233 3234 3235 3236 3237 3238 3238 3238 3239 3238 3239 3239 3240 3240 3241 3242 3242 3243 3243 3244
3207 3208 3209 3209 3210 3210 3211 3213 3214 3216 3217 3217 3218 3220 3222 3224 3225 3227 3228 3228 3228 3229 3230 3231 3232 3233 3234 3235 3235 3236 3236 3236 3236 3236 3237 3237 3238 3238 3239 3240 3241 3241
3205 3206 3207 3207 3208 3208 3209 3210 3211 3212 3214 3215 3217 3218 3219 3220 3222 3223 3225 3226 3226 3226 3227 3228 3229 3230 3231 3232 3232 3233 3233 3233 3233 3234 3234 3235 3235 3236 3236 3237 3238 3238
3204 3204 3205 3207 3208 3208 3208 3209 3209 3209 3210 3212 3214 3216 3217 3218 3219 3220 3221 3222 3223 3223 3223 3224 3225 3226 3228 3229 3230 3230 3231 3230 3230 3231 3232 3232 3233 3234 3234 3234 3235 3235
3201 3202 3203 3205 3205 3206 3207 3208 3208 3208 3208 3208 3210 3213 3214 3216 3217 3218 3218 3218 3219 3219 3219 3220 3222 3223 3224 3225 3226 3226 3227 3227 3227 3228 3228 3229 3230 3231 3231 3232 3232 3232
3199 3200 3201 3201 3202 3204 3206 3206 3206 3206 3206 3207 3208 3210 3212 3213 3215 3216 3214 3213 3214 3214 3215 3216 3218 3219 3220 3221 3222 3222 3222 3223 3224 3224 3225 3225 3226 3228 3228 3228 3229 3229
3196 3197 3197 3198 3199 3202 3203 3203 3203 3204 3204 3205 3206 3207 3208 3210 3212 3212 3211 3209 3209 3210 3211 3212 3214 3215 3215 3216 3217 3217 3218 3219 3219 3220 3221 3222 3223 3224 3224 3225 3225 3226
3194 3194 3195 3196 3197 3199 3200 3200 3201 3201 3202 3202 3203 3204 3205 3206 3208 3208 3207 3206 3205 3205 3207 3208 3209 3210 3211 3212 3213 3213 3213 3214 3215 3215 3217 3218 3219 3219 3220 3221 3221 3222